GSAT0206 (PRN E30)

Last updated on Feb. 21, 2020, 4:44 a.m. UTC

1 40890U 15045B   20051.66035528  .00000008  00000-0  00000-0 0  9997
2 40890  56.2438 285.3381 0003583  17.8644 342.2192  1.70474887 27682
UTC
Height (km)
Latitude
Longitude
Inclination
Orbital Period
UTC large
Height (km)
Speed (km/s)
/
Latitude / Longitude
Inclination (degrees)
Orbital Period (minutes)
Azimuth
Elevation
Range (km)
Doppler Factor
iOS Compass Heading
iOS Angle

Next 30 passes for location: Hong Kong

Rise time Rise Azimuth (degrees) Set time Set Azimuth (degrees) Duration Max altitude (degrees)

No matching passes for this satellites